Lawrence, MA

7:56 PM EDT on March 26, 2017 (GMT -0400)
Lawrence Municipal

Weather History for KLWM - September, 2014

Change the Weather History Date:

Tuesday, September 2, 2014

  Actual Average Record
Temperature  
Mean Temperature 80 °F -  
Max Temperature 90 °F 77 °F 100 °F (1953)
Min Temperature 70 °F 55 °F 41 °F (1991)
Cooling Degree Days 14    
Growing Degree Days 30 (Base 50)    
Moisture  
Dew Point 71 °F    
Average Humidity 85    
Maximum Humidity 97    
Minimum Humidity 53    
Precipitation  
Precipitation 0.08 in - - ()
Sea Level Pressure  
Sea Level Pressure 29.85 in    
Wind  
Wind Speed 5 mph (SSW)    
Max Wind Speed 20 mph    
Max Gust Speed 36 mph    
Visibility 9 miles    
Events Rain , Thunderstorm    
Averages and records for this station are not official NWS values.
T = Trace of Precipitation, MM = Missing Value Source: NWS Daily Summary

Daily Weather History Graph

Daily Weather History Graph

Search for Another Location

Airport or City:

Trip Planner

Search our weather history database for the weather conditions in past years. The results will help you decide how hot, cold, wet, or windy it might be!

Date:

Astronomy

Sep. 02, 2014 Rise Set
Actual Time 6:10 AM EDT 7:17 PM EDT
Civil Twilight 5:41 AM EDT 7:46 PM EDT
Nautical Twilight 5:06 AM EDT 8:20 PM EDT
Astronomical Twilight 4:30 AM EDT 8:57 PM EDT
Moon 2:01 PM EDT (9/2) 11:58 PM EDT (9/2)
Length of Visible Light 14h 04m
Length of Day
13h 06m
First Quarter, 52% of the Moon is Illuminated
Sep 2
First Quarter
Sep 8
Full
Sep 15
Last Quarter
Sep 24
New
Oct 1
First Quarter

Hourly Weather History & Observations

Time (EDT) Temp. Heat Index Dew Point Humidity Pressure Visibility Wind Dir Wind Speed Gust Speed Precip Events Conditions
12:54 AM 73.0 °F - 70.0 °F 90% 29.95 in 10.0 mi SSW 4.6 mph - N/A   Clear
1:54 AM 73.0 °F - 70.0 °F 90% 29.93 in 10.0 mi South 5.8 mph - N/A   Scattered Clouds
2:54 AM 72.0 °F - 70.0 °F 93% 29.91 in 10.0 mi South 3.5 mph - N/A   Clear
3:54 AM 71.1 °F - 70.0 °F 96% 29.91 in 8.0 mi SSW 4.6 mph - N/A   Partly Cloudy
4:54 AM 70.0 °F - 69.1 °F 97% 29.90 in 7.0 mi SSW 3.5 mph - N/A   Clear
5:54 AM 70.0 °F - 69.1 °F 97% 29.90 in 6.0 mi Calm Calm - N/A   Clear
6:54 AM 71.1 °F - 70.0 °F 96% 29.92 in 5.0 mi SSW 3.5 mph - N/A   Clear
7:54 AM 73.0 °F - 71.1 °F 93% 29.92 in 8.0 mi SSW 4.6 mph - N/A   Partly Cloudy
8:54 AM 77.0 °F - 72.0 °F 84% 29.92 in 10.0 mi WSW 5.8 mph - N/A   Clear
9:54 AM 81.0 °F 85.2 °F 72.0 °F 74% 29.92 in 10.0 mi SSW 6.9 mph - N/A   Mostly Cloudy
10:54 AM 84.0 °F 90.2 °F 73.0 °F 69% 29.91 in 10.0 mi SW 4.6 mph - N/A   Clear
11:54 AM 87.1 °F 93.6 °F 72.0 °F 61% 29.88 in 10.0 mi WSW 8.1 mph 17.3 mph N/A   Partly Cloudy
12:54 PM 88.0 °F 92.1 °F 69.1 °F 53% 29.86 in 10.0 mi SW 6.9 mph - N/A   Scattered Clouds
1:54 PM 89.1 °F 94.1 °F 70.0 °F 53% 29.83 in 10.0 mi South 10.4 mph 16.1 mph N/A   Scattered Clouds
2:54 PM 87.1 °F 92.0 °F 70.0 °F 57% 29.81 in 10.0 mi SSW 12.7 mph - N/A   Mostly Cloudy
3:29 PM 73.9 °F - 71.1 °F 91% 29.84 in 7.0 mi NW 19.6 mph 35.7 mph 0.01 in Rain , Thunderstorm Light Thunderstorms and Rain
3:37 PM 73.9 °F - 71.1 °F 91% 29.84 in 3.0 mi Variable 5.8 mph 25.3 mph 0.07 in Rain , Thunderstorm Heavy Thunderstorms and Rain
3:54 PM 75.0 °F - 72.0 °F 90% 29.83 in 10.0 mi NNE 3.5 mph - 0.07 in Thunderstorm Thunderstorm
4:09 PM 75.0 °F - 72.0 °F 90% 29.84 in 9.0 mi ESE 3.5 mph - 0.00 in Rain , Thunderstorm Light Rain
4:42 PM 77.0 °F - 73.0 °F 88% 29.83 in 10.0 mi Calm Calm - 0.01 in   Scattered Clouds
4:54 PM 77.0 °F - 73.0 °F 88% 29.82 in 10.0 mi South 3.5 mph - 0.01 in   Mostly Cloudy
5:54 PM 78.1 °F - 73.0 °F 84% 29.81 in 10.0 mi Variable 3.5 mph - N/A   Clear
5:56 PM 78.1 °F - 73.0 °F 84% 29.81 in 10.0 mi South 3.5 mph - N/A   Mostly Cloudy
6:54 PM 77.0 °F - 73.0 °F 88% 29.81 in 10.0 mi SE 3.5 mph - N/A   Mostly Cloudy
7:54 PM 75.9 °F - 73.0 °F 91% 29.79 in 10.0 mi Calm Calm - N/A   Clear
8:54 PM 75.0 °F - 72.0 °F 90% 29.78 in 10.0 mi SSW 4.6 mph - N/A   Clear
9:54 PM 73.9 °F - 72.0 °F 93% 29.77 in 10.0 mi Calm Calm - N/A   Clear
10:54 PM 73.9 °F - 72.0 °F 93% 29.76 in 10.0 mi SSW 5.8 mph - N/A   Clear
11:54 PM 73.9 °F - 72.0 °F 93% 29.74 in 10.0 mi SSW 4.6 mph - N/A   Clear